Flag Weather past 2 weeks in Plymouth, England, United Kingdom

Now
52 °F

Passing clouds.


Feels Like: 48 °F
Forecast: N/A
Wind: 12 mph from East

Location: Exeter Airport

Current Time: Nov 28, 2014 at 5:16:03 PM

Latest Report: Nov 28, 2014 at 4:50 PM


Visibility: N/A

Pressure: 29.53 "Hg

Humidity: 88%

Dew point: 48 °F

Location of PlymouthLocation

Historic Weather in Plymouth — Graph

°F

Plymouth temperature yesterday

Maximum temperature yesterday: 54 °F (at 9:50 PM)
Minimum temperature yesterday: 36 °F (at 5:50 AM)
Average temperature yesterday: 44 °F

Past Weeks' High & Low Weather Summary

 TemperatureHumidityPressure
High59 °F (Nov 22, 1:50 PM)100% (Nov 15, 5:50 AM)30.33 "Hg (Nov 15, 5:50 AM)
Low28 °F (Nov 24, 6:50 AM)67% (Nov 14, 12:20 PM)29.27 "Hg (Nov 14, 12:50 AM)
Average48 °F89%29.80 "Hg
* Reported Nov 13 4:20 PM — Nov 28 4:20 PM, Plymouth, Weather by CustomWeather, © 2014

Note: Actual official high and low records may vary slightly from our data, if they occured in-between our weather recording intervals... More about our weather records

Advertising

Plymouth weather history for previous 24 hours

 ConditionsComfort  
Time TempWeatherWind HumidityBarometerVisibility
4:20 PM
Nov 28
52 °FPassing clouds.10 mph88%29.53 "HgN/A
2:50 PM52 °FPartly sunny.13 mph88%29.50 "HgN/A
2:20 PM52 °FPartly sunny.12 mph88%29.50 "HgN/A
1:50 PM52 °FPartly sunny.13 mph88%29.50 "HgN/A
1:20 PM54 °FPartly sunny.13 mph82%29.50 "HgN/A
12:50 PM54 °FPartly sunny.13 mph82%29.50 "HgN/A
12:20 PM54 °FPartly sunny.9 mph82%29.50 "HgN/A
11:50 AM54 °FPartly sunny.10 mph82%29.50 "HgN/A
11:20 AM54 °FPartly sunny.14 mph82%29.50 "HgN/A
10:50 AM54 °FPartly sunny.15 mph82%29.50 "HgN/A
10:20 AM54 °FPartly sunny.10 mph82%29.50 "HgN/A
9:50 AM54 °FPartly sunny.9 mph82%29.50 "HgN/A
9:20 AM52 °FPartly sunny.14 mph88%29.47 "HgN/A
8:50 AM52 °FPartly sunny.20 mph82%29.47 "HgN/A
8:20 AM52 °FPartly sunny.21 mph82%29.47 "HgN/A
7:50 AM52 °FScattered clouds.20 mph88%29.45 "HgN/A
7:20 AM52 °FPassing clouds.20 mph88%29.45 "HgN/A
6:50 AM54 °FPassing clouds.23 mph82%29.45 "HgN/A
6:20 AM54 °FPassing clouds.23 mph82%29.45 "HgN/A
5:50 AM54 °FPassing clouds.20 mph88%29.45 "HgN/A
1:50 AM54 °FPassing clouds.20 mph88%29.42 "HgN/A
1:20 AM54 °FPassing clouds.17 mph88%29.42 "HgN/A
12:50 AM54 °FPassing clouds.18 mph88%29.42 "HgN/A
12:20 AM54 °FPassing clouds.18 mph88%29.45 "HgN/A
11:50 PM
Nov 27
54 °FPassing clouds.20 mph88%29.45 "HgN/A
11:20 PM54 °FPassing clouds.21 mph82%29.45 "HgN/A
10:50 PM52 °FPassing clouds.17 mph88%29.45 "HgN/A
10:20 PM54 °FPassing clouds.18 mph82%29.45 "HgN/A
9:50 PM54 °FPassing clouds.16 mph82%29.45 "HgN/A
9:20 PM52 °FPassing clouds.15 mph82%29.45 "HgN/A
8:50 PM52 °FPassing clouds.17 mph88%29.45 "HgN/A
8:20 PM52 °FPassing clouds.14 mph88%29.45 "HgN/A
7:50 PM52 °FPassing clouds.13 mph82%29.47 "HgN/A
7:20 PM52 °FPassing clouds.14 mph82%29.47 "HgN/A
6:50 PM50 °FPassing clouds.12 mph88%29.47 "HgN/A
6:20 PM52 °FPassing clouds.10 mph88%29.47 "HgN/A
5:50 PM52 °FPassing clouds.13 mph88%29.47 "HgN/A
5:20 PM50 °FPassing clouds.10 mph94%29.47 "Hg5 mi
Weather by CustomWeather, © 2014

See weather overviewHow to use our weather pages